Weather reports worldwide

Advertisment
Albuquerque/Int., United States of America (72365): temperature & dewpoint: 22.05.2020 15:00:00 - 28.05.2020 15:00:00 (MDT)Albuquerque/Int., United States of America (72365): wind speed & gusts: 22.05.2020 15:00:00 - 28.05.2020 15:00:00 (MDT)Albuquerque/Int., United States of America (72365): wind direction: 22.05.2020 15:00:00 - 28.05.2020 15:00:00 (MDT)Albuquerque/Int., United States of America (72365): reduced air pressure: 22.05.2020 15:00:00 - 28.05.2020 15:00:00 (MDT)Albuquerque/Int., United States of America (72365): visibility: 22.05.2020 15:00:00 - 28.05.2020 15:00:00 (MDT)Albuquerque/Int., United States of America (72365): precipitation: 22.05.2020 15:00:00 - 28.05.2020 15:00:00 (MDT)
Date & Time tt [°C] td [°C] ff [km/h] ff [kn] fx [km/h] fx [kn] dd ppp [hPa] vv [km] rr [mm]
28.05.2020 15:00:00 30,6 2,2 8 4 - - - 1011,9 16 0,0
28.05.2020 14:00:00 29,4 1,7 8 4 - - - 1012,9 16 -
28.05.2020 13:00:00 29,4 2,8 16 9 - - E 1013,0 16 -
28.05.2020 12:00:00 27,8 3,3 18 10 - - ESE 1013,7 16 0,0
28.05.2020 11:00:00 26,7 3,3 13 7 - - E 1013,7 16 -
28.05.2020 10:00:00 23,9 2,8 5 3 - - ENE 1014,3 16 -
28.05.2020 09:00:00 22,8 2,8 15 8 - - NNE 1013,8 16 0,0
28.05.2020 08:00:00 20,0 2,8 35 19 55 30 E 1013,5 16 -
28.05.2020 07:00:00 18,9 2,2 46 25 57 31 E 1012,8 16 -
28.05.2020 06:00:00 18,9 2,2 41 22 52 28 E 1011,5 16 0,0
28.05.2020 05:00:00 19,4 2,2 42 23 57 31 E 1010,9 16 -
28.05.2020 04:00:00 21,1 2,2 42 23 55 30 E 1009,9 16 -
28.05.2020 03:00:00 22,2 2,8 37 20 54 29 E 1009,4 16 0,0
28.05.2020 02:00:00 22,2 1,7 5 3 - - NNW 1009,2 16 -
28.05.2020 01:00:00 23,9 1,7 5 3 - - SSW 1008,9 16 -
28.05.2020 00:00:00 24,4 1,7 0 0 - - N 1009,0 16 0,0
27.05.2020 23:00:00 25,0 1,7 9 5 - - NE 1009,1 16 -
27.05.2020 22:00:00 26,1 1,1 26 14 - - ENE 1008,8 16 -
27.05.2020 21:00:00 28,3 -0,6 28 15 59 32 E 1007,7 16 0,0
27.05.2020 20:00:00 28,9 -1,1 9 5 - - N 1007,7 16 -
27.05.2020 19:00:00 29,4 -1,1 15 8 - - WNW 1007,2 16 -
27.05.2020 18:00:00 30,6 -1,1 11 6 - - - 1007,1 16 0,0
27.05.2020 17:00:00 30,6 -1,7 15 8 - - SW 1007,4 16 -
27.05.2020 16:00:00 30,6 -1,7 13 7 - - S 1008,1 16 -
27.05.2020 15:00:00 31,1 -1,7 9 5 - - - 1008,4 16 0,0
27.05.2020 14:00:00 29,4 -1,1 13 7 - - NNW 1009,4 16 -
27.05.2020 13:00:00 28,3 -0,6 13 7 - - W 1009,7 16 -
27.05.2020 12:00:00 27,2 -0,6 5 3 - - - 1010,3 16 0,0
27.05.2020 11:00:00 25,6 -2,2 9 5 - - WNW 1010,5 16 -
27.05.2020 10:00:00 22,8 -3,3 18 10 - - NW 1011,5 16 -
27.05.2020 09:00:00 20,6 -2,8 15 8 - - N 1011,7 16 0,0
27.05.2020 08:00:00 18,3 -3,3 8 4 - - N 1011,8 16 -
27.05.2020 07:00:00 16,7 -3,9 9 5 - - NNE 1011,4 16 -
27.05.2020 06:00:00 16,7 -4,4 8 4 - - ENE 1010,2 16 0,0
27.05.2020 05:00:00 16,1 -6,1 8 4 - - ENE 1009,6 16 -
27.05.2020 04:00:00 15,0 -7,2 8 4 - - SE 1010,2 16 -
27.05.2020 03:00:00 16,7 -7,2 8 4 - - ESE 1009,5 16 0,0
27.05.2020 02:00:00 17,8 -6,7 5 3 - - - 1009,6 16 -
27.05.2020 01:00:00 21,1 -7,2 9 5 - - W 1009,3 16 -
27.05.2020 00:00:00 21,7 -7,8 15 8 - - NNW 1009,3 16 0,0
26.05.2020 23:00:00 23,9 -8,3 18 10 - - NNW 1009,1 16 -
26.05.2020 22:00:00 24,4 -8,9 13 7 - - NNW 1008,9 16 -
26.05.2020 21:00:00 25,6 -7,2 18 10 - - NW 1008,7 16 0,0
26.05.2020 20:00:00 26,7 -7,2 21 11 - - NW 1008,8 16 -
26.05.2020 19:00:00 28,3 -7,8 22 12 - - NW 1008,2 16 -
26.05.2020 18:00:00 28,9 -9,4 28 15 - - NW 1008,2 16 0,0
26.05.2020 17:00:00 28,9 -7,2 15 8 - - NNW 1008,4 16 -
26.05.2020 16:00:00 26,1 -4,4 0 0 - - N 1009,2 16 -
26.05.2020 15:00:00 26,1 -3,3 8 4 - - - 1010,3 16 0,0
26.05.2020 14:00:00 24,4 -1,7 8 4 - - W 1011,3 16 -
26.05.2020 13:00:00 22,8 -0,6 5 3 - - - 1012,2 16 -
26.05.2020 12:00:00 21,7 1,7 5 3 - - - 1013,5 16 0,0
26.05.2020 11:00:00 19,4 2,8 5 3 - - - 1014,5 16 -
26.05.2020 10:00:00 18,3 3,3 8 4 - - N 1015,2 16 -
26.05.2020 09:00:00 15,0 3,3 8 4 - - N 1015,8 16 0,0
26.05.2020 08:00:00 12,2 2,8 8 4 - - NW 1015,6 16 -
26.05.2020 07:00:00 11,1 2,2 8 4 - - N 1015,0 16 -
26.05.2020 06:00:00 10,6 1,7 8 4 - - NNE 1014,6 16 0,0
26.05.2020 05:00:00 11,7 1,7 13 7 - - NNE 1013,8 16 -
26.05.2020 04:00:00 12,2 1,7 13 7 - - N 1014,0 16 -
26.05.2020 03:00:00 12,8 1,7 11 6 - - NNW 1013,9 16 0,0
26.05.2020 02:00:00 13,3 1,7 13 7 - - NNE 1013,8 16 -
26.05.2020 01:00:00 14,4 2,2 26 14 - - E 1014,1 16 -
26.05.2020 00:00:00 14,4 1,7 31 17 - - E 1013,8 16 0,0
25.05.2020 23:00:00 15,0 1,7 34 18 61 33 E 1013,2 16 -
25.05.2020 22:00:00 15,6 2,2 46 25 61 33 E 1012,5 16 -
25.05.2020 21:00:00 17,2 2,2 31 17 - - E 1011,7 16 0,0
25.05.2020 20:00:00 19,4 1,7 24 13 - - ESE 1010,4 16 -
25.05.2020 19:00:00 21,7 -0,6 24 13 - - ESE 1009,1 16 -
25.05.2020 18:00:00 22,2 -0,6 29 16 - - E 1008,8 16 0,0
25.05.2020 17:00:00 23,3 -1,1 11 6 - - NE 1008,7 16 -
25.05.2020 16:00:00 21,7 -1,1 11 6 - - SSW 1009,7 16 -
25.05.2020 15:00:00 21,1 1,1 8 4 - - - 1010,1 16 0,0
25.05.2020 14:00:00 20,6 1,7 5 3 - - - 1010,3 16 -
25.05.2020 13:00:00 18,3 2,2 22 12 - - ESE 1010,7 16 -
25.05.2020 12:00:00 18,9 2,8 18 10 - - ESE 1011,0 16 0,0
25.05.2020 11:00:00 17,8 2,8 24 13 - - E 1011,0 16 -
25.05.2020 10:00:00 16,7 2,8 24 13 50 27 E 1010,9 16 -
25.05.2020 09:00:00 15,0 2,8 41 22 48 26 E 1010,7 16 0,0
25.05.2020 08:00:00 13,9 3,3 35 19 - - E 1010,2 16 -
25.05.2020 07:00:00 13,3 3,3 26 14 - - E 1009,7 16 -
25.05.2020 06:00:00 13,9 3,3 28 15 - - E 1008,6 16 0,0
25.05.2020 05:00:00 15,0 2,8 29 16 - - E 1008,2 16 -
25.05.2020 04:00:00 13,9 -11,7 13 7 - - ENE 1008,2 16 -
25.05.2020 03:00:00 15,0 -12,2 8 4 - - NNE 1007,6 16 0,0
25.05.2020 02:00:00 15,6 -12,8 15 8 - - NNW 1007,6 16 -
25.05.2020 01:00:00 16,7 -13,3 13 7 - - N 1006,6 16 -
25.05.2020 00:00:00 17,8 -13,3 22 12 - - N 1005,3 16 0,0
24.05.2020 23:00:00 18,3 -12,8 21 11 - - N 1005,4 16 -
24.05.2020 22:00:00 20,6 -12,8 18 10 - - NW 1004,5 16 -
24.05.2020 21:00:00 22,2 -10,6 26 14 - - W 1003,6 16 0,0
24.05.2020 20:00:00 23,9 -11,1 29 16 - - W 1003,0 16 -
24.05.2020 19:00:00 25,6 -9,4 24 13 - - W 1002,8 16 -
24.05.2020 18:00:00 26,1 -8,9 31 17 - - W 1002,5 16 0,0
24.05.2020 17:00:00 26,7 -8,9 39 21 48 26 W 1001,9 16 -
24.05.2020 16:00:00 26,7 -8,9 29 16 52 28 WSW 1002,7 16 -
24.05.2020 15:00:00 26,1 -6,1 24 13 - - W 1003,5 16 0,0
24.05.2020 14:00:00 23,9 -6,1 5 3 - - - 1004,5 16 -
24.05.2020 13:00:00 24,4 -6,7 22 12 - - SSW 1005,3 16 -
24.05.2020 12:00:00 22,8 -6,7 16 9 - - SW 1005,8 16 0,0
24.05.2020 11:00:00 22,2 -5,6 16 9 - - W 1006,5 16 -
24.05.2020 10:00:00 20,6 -5,6 13 7 - - W 1006,9 16 -
24.05.2020 09:00:00 18,3 -5,6 16 9 - - WSW 1007,4 16 0,0
24.05.2020 08:00:00 16,7 -7,2 11 6 - - SSW 1007,5 16 -
24.05.2020 07:00:00 12,2 -7,2 8 4 - - ESE 1007,0 16 -
24.05.2020 06:00:00 13,3 -7,8 11 6 - - E 1006,5 16 0,0
24.05.2020 05:00:00 17,8 -7,8 16 9 - - SW 1005,6 16 -
24.05.2020 04:00:00 16,7 -8,3 8 4 - - SSE 1006,1 16 -
24.05.2020 03:00:00 17,2 -8,3 16 9 - - ESE 1005,7 16 0,0
24.05.2020 02:00:00 16,7 -8,9 9 5 - - ESE 1005,5 16 -
24.05.2020 01:00:00 17,2 -8,9 15 8 - - SE 1005,7 16 -
24.05.2020 00:00:00 21,1 -8,3 8 4 - - WNW 1004,6 16 0,0
23.05.2020 23:00:00 21,1 -9,4 9 5 - - W 1004,5 16 -
23.05.2020 22:00:00 22,8 -9,4 15 8 - - NW 1003,6 16 -
23.05.2020 21:00:00 24,4 -9,4 26 14 - - NW 1002,4 16 0,0
23.05.2020 20:00:00 25,6 -8,9 21 11 - - WNW 1001,5 16 -
23.05.2020 19:00:00 27,2 -8,3 16 9 - - S 1000,9 16 -
23.05.2020 18:00:00 27,8 -7,8 28 15 - - SSE 1001,5 16 0,0
23.05.2020 17:00:00 27,8 -7,2 22 12 - - S 1002,0 16 -
23.05.2020 16:00:00 27,8 -7,8 24 13 - - SSW 1001,9 16 -
23.05.2020 15:00:00 26,1 -8,3 13 7 - - S 1003,6 16 0,0
23.05.2020 14:00:00 26,1 -7,8 26 14 - - S 1005,0 16 -
23.05.2020 13:00:00 24,4 -7,2 15 8 - - W 1006,2 16 -
23.05.2020 12:00:00 23,3 -7,2 13 7 - - WSW 1006,8 16 0,0
23.05.2020 11:00:00 21,1 -7,2 8 4 - - SSE 1007,3 16 -
23.05.2020 10:00:00 20,6 -8,9 5 3 - - - 1007,5 16 -
23.05.2020 09:00:00 18,3 -8,9 11 6 - - SW 1008,1 16 0,0
23.05.2020 08:00:00 16,7 -9,4 11 6 - - ESE 1008,1 16 -
23.05.2020 07:00:00 14,4 -8,3 8 4 - - NE 1007,7 16 -
23.05.2020 06:00:00 13,3 -11,1 0 0 - - N 1007,3 16 0,0
23.05.2020 05:00:00 13,3 -11,1 9 5 - - E 1006,9 16 -
23.05.2020 04:00:00 17,2 -11,1 15 8 - - SW 1006,0 16 -
23.05.2020 03:00:00 18,3 -11,7 16 9 - - SSW 1006,1 16 0,0
23.05.2020 02:00:00 16,1 -12,2 11 6 - - S 1006,5 16 -
23.05.2020 01:00:00 16,1 -12,2 9 5 - - S 1006,1 16 -
23.05.2020 00:00:00 20,0 -12,8 11 6 - - SW 1005,5 16 0,0
22.05.2020 23:00:00 21,7 -12,2 16 9 - - SW 1005,4 16 -
22.05.2020 22:00:00 22,8 -12,2 26 14 - - S 1004,3 16 -
22.05.2020 21:00:00 23,3 -12,2 22 12 - - SSE 1003,7 16 0,0
22.05.2020 20:00:00 25,0 -12,2 24 13 - - S 1003,8 16 -
22.05.2020 19:00:00 26,7 -13,9 29 16 50 27 S 1003,6 16 -
22.05.2020 18:00:00 27,8 -13,9 28 15 - - S 1004,1 16 0,0
22.05.2020 17:00:00 27,2 -12,8 28 15 - - SSW 1005,4 16 -
22.05.2020 16:00:00 26,7 -13,3 21 11 - - S 1007,2 16 -
22.05.2020 15:00:00 25,6 -12,8 13 7 - - SSW 1007,8 16 0,0

tt = temperature
td = dewpoint
ff = wind speed
fx = gusts
dd = wind direction
ppp = reduced air pressure
vv = visibility
rr = precipitation

Next stations